FENGYUN 2H DEB, 43645

Orbit data source: Space-Track

FENGYUN 2H DEB, 43645 is space debris in GEO originally from a launch on Tue, 05 Jun 2018 UTC launched from the Xichang Space Center, China (XSC). Debris objects in space refer to the collection of defunct objects orbiting the Earth. Examples of debris include non-operational satellites, rocket bodies, and fragments generated from explosions, collisions, or faulty payload assembly.

Not visible in the next 10 days
Identifier
43645, 2018-050D
Orbit
GEO
Country
Flag of CNCN / PRC
Related business
Manufacturer
SISE
Mission
Spacecraft
Bus & Motor
Unknown
Mass
Unknown
Launch date (UTC)
2018-06-05 (7 years ago)
Launch vehicle
Unknown
Launch site
Xichang Space Center, China (XSC)
Object type
Payload
Rocket body
Debris
Shape & HBR
Cyl, 0.3 m
Radar Cross Section
0.137 m²

Expand to show TLE details & history
Last TLE update: 2 days ago

TLE from 2 days ago
0 FENGYUN 2H DEB
1 43645U 18050D   25306.94474888  .00000097  00000-0  00000+0 0  9999
2 43645   4.3155  79.1048 0047595 244.2328 115.3123  1.00243204 26657
Epoch: 2025-11-02T22:40Z
TLE epoch observation values (Epoch: 2025-11-02T22:40:26.303Z)
Latitude
-0.00002°
Longitude
56.53838°
Altitude
35,879.592 km
Speed
3.068 km/s
True Right ascension
05h 16m 24s
True Declination
0° 00' 00"
Sunlit
Object was in daylight at epoch
Visualization orbit readout
Latitude
Unknown
Longitude
Unknown
Altitude
Unknown
Speed
Unknown
Apparent Right ascension
Unknown
Apparent Declination
Unknown
Sunlit
N/A
Visualization observer readout
Local Sidereal Time
15:01:38
Azimuth
Unknown
Elevation
Unknown
Doppler factor
Unknown
Orbital elements
Apogee altitude
35,996.397 km
Perigee altitude
35,594.944 km
Semi-major axis
42,173.808 km
Eccentricity
0.00476
Inclination
4.3155°
RAAN
79.1048°
Arg. of periapsis
244.2328°
True anomaly
115.80408°
Mean anomaly
115.3123°
Eccentric anomaly
115.55831°
Mean motion
0.2506 °/min
Orbital period
1,436.56 mins
BSTAR
0
Loading maneuver chart data...
Computing Atmospheric mass density...
Loading historical data...
Loading historical data...
Loading historical data...
Loading historical data...
Loading historical data...
Loading historical data...
Loading historical data...
Other satellites on launch #50 in the year 2018 (2018-06-05 UTC)

Documentation

Showing up to 5 results
|